Home > Time Zones > World Clock > Weather > Norway > Moss > Past weeks

Flag for Norway Weather past 2 weeks in Moss, Norway

Now
52 °F

Sunny.


Feels Like: 52 °F
Forecast: 42 / 56 °F
Wind: 2 mph from North

Location: Rygge

Current Time: Apr 18, 2015 at 11:47:11 AM

Latest Report: Apr 18, 2015 at 10:50 AM


Visibility: 10 mi

Pressure: 30.27 "Hg

Humidity: 47%

Dew point: 32 °F

Location of MossLocation

Historic Weather in Moss — Graph

°F

Moss temperature yesterday

Maximum temperature yesterday: 54 °F (at 3:20 PM)
Minimum temperature yesterday: 41 °F (at 3:50 AM)
Average temperature yesterday: 47 °F

Past Weeks' High & Low Weather Summary

 TemperatureHumidityPressure
High61 °F (Apr 7, 3:20 PM)100% (Apr 7, 12:50 AM)30.45 "Hg (Apr 7, 12:50 AM)
Low27 °F (Apr 5, 4:20 AM)23% (Apr 8, 5:20 PM)29.45 "Hg (Apr 15, 5:50 PM)
Average43 °F64%30.01 "Hg
* Reported Apr 3 10:20 AM — Apr 18 10:20 AM, Moss, Weather by CustomWeather, © 2015

Note: Actual official high and low records may vary slightly from our data, if they occured in-between our weather recording intervals... More about our weather records

Advertising

Moss weather history for previous 24 hours

 ConditionsComfort  
Time TempWeatherWind HumidityBarometerVisibility
10:20 AM
Sat, Apr 18
48 °FSunny.No wind54%30.27 "Hg10 mi
9:50 AM48 °FPassing clouds.3 mph54%30.27 "HgN/A
9:20 AM46 °FPassing clouds.3 mph57%30.27 "HgN/A
8:50 AM45 °FSunny.2 mph66%30.27 "Hg10 mi
8:20 AM41 °FSunny.2 mph70%30.27 "Hg10 mi
7:50 AM37 °FSunny.1 mph81%30.27 "Hg10 mi
7:20 AM36 °FSunny.1 mph81%30.30 "Hg10 mi
6:50 AM32 °FClear.1 mph87%30.30 "Hg10 mi
6:20 AM32 °FClear.No wind93%30.30 "Hg10 mi
5:50 AM32 °FChilly.2 mph93%30.30 "HgN/A
5:20 AM34 °FChilly.3 mph87%30.30 "HgN/A
4:50 AM34 °FChilly.1 mph81%30.30 "HgN/A
4:20 AM30 °FChilly.2 mph86%30.30 "HgN/A
3:50 AM34 °FChilly.1 mph81%30.30 "HgN/A
3:20 AM34 °FChilly.No wind81%30.30 "HgN/A
2:50 AM36 °FChilly.3 mph81%30.30 "HgN/A
2:20 AM37 °FChilly.3 mph75%30.30 "HgN/A
1:50 AM37 °FChilly.2 mph75%30.30 "HgN/A
1:20 AM37 °FChilly.3 mph75%30.30 "HgN/A
12:50 AM37 °FChilly.3 mph70%30.27 "HgN/A
12:20 AM41 °FQuite cool.5 mph61%30.27 "HgN/A
11:50 PM
Fri, Apr 17
41 °FQuite cool.6 mph61%30.27 "HgN/A
11:20 PM43 °FClear.7 mph57%30.27 "Hg10 mi
10:50 PM45 °FClear.7 mph53%30.24 "Hg10 mi
10:20 PM45 °FClear.6 mph57%30.24 "Hg10 mi
9:50 PM46 °FClear.7 mph53%30.24 "Hg10 mi
9:20 PM48 °FSunny.8 mph46%30.21 "Hg10 mi
8:50 PM48 °FSunny.9 mph50%30.21 "Hg10 mi
8:20 PM50 °FSunny.10 mph43%30.18 "Hg10 mi
7:50 PM52 °FSunny.13 mph41%30.18 "Hg10 mi
7:20 PM52 °FPassing clouds.10 mph44%30.15 "HgN/A
6:50 PM52 °FSunny.12 mph41%30.15 "Hg10 mi
6:20 PM52 °FSunny.13 mph41%30.15 "Hg10 mi
5:50 PM54 °FPassing clouds.13 mph41%30.12 "HgN/A
5:20 PM52 °FSunny.15 mph41%30.12 "Hg10 mi
4:50 PM54 °FPassing clouds.14 mph38%30.12 "HgN/A
4:20 PM52 °FSunny.14 mph44%30.12 "Hg10 mi
3:50 PM52 °FSunny.14 mph44%30.12 "Hg10 mi
3:20 PM54 °FSunny.14 mph41%30.09 "Hg10 mi
2:50 PM52 °FSunny.13 mph44%30.09 "Hg10 mi
2:20 PM52 °FSunny.13 mph44%30.09 "Hg10 mi
1:50 PM52 °FPassing clouds.15 mph44%30.07 "HgN/A
1:20 PM52 °FSunny.18 mph44%30.07 "Hg10 mi
12:50 PM52 °FSunny.18 mph44%30.07 "Hg10 mi
12:20 PM52 °FPassing clouds.18 mph44%30.07 "HgN/A
11:50 AM50 °FSunny.21 mph43%30.04 "Hg10 mi
11:20 AM50 °FBroken clouds.15 mph47%30.04 "HgN/A
Weather by CustomWeather, © 2015

See weather overviewHow to use our weather pages